Overview Statistics Trail Chart Weather Telemetry Raw packets
 

This is the latest recevied weather packets stored in our database for station/object WW5JC. If no packets are shown the sender has not sent any weather packets the latest 10 day(s).

<< 2 3 4 5 6 7 8 >>
Time Temp. Humidity Pressure Rain* Wind** Luminosity Snow
1788613175 26.11° C 83% 1016.4 hPa 0 mm - 56 W/m² -
1788612870 25.56° C 84% 1016.3 hPa 0 mm - 49 W/m² -
1788612565 25° C 86% 1016.1 hPa 0 mm - 43 W/m² -
1788612262 24.44° C 88% 1016.3 hPa 0 mm - 36 W/m² -
1788611962 23.89° C 90% 1016 hPa 0 mm - 26 W/m² -
1788611659 23.89° C 90% 1016.1 hPa 0 mm - 23 W/m² -
1788611354 23.33° C 91% 1016.1 hPa 0 mm - 20 W/m² -
1788611053 23.33° C 91% 1016 hPa 0 mm - 17 W/m² -
1788610749 23.33° C 91% 1016 hPa 0 mm - 14 W/m² -
1788610444 23.33° C 91% 1016 hPa 0 mm - 11 W/m² -
1788610138 23.33° C 91% 1015.9 hPa 0 mm - 7 W/m² -
1788609837 23.33° C 90% 1015.9 hPa 0 mm - 5 W/m² -
1788609533 23.89° C 89% 1016 hPa 0 mm - 3 W/m² -
1788609232 23.89° C 89% 1015.8 hPa 0 mm - 2 W/m² -
1788608927 23.89° C 90% 1015.8 hPa 0 mm - 1 W/m² -
1788608626 23.89° C 90% 1015.9 hPa 0 mm - 0 W/m² -
1788608320 23.33° C 90% 1015.9 hPa 0 mm - 0 W/m² -
1788608016 23.33° C 90% 1015.7 hPa 0 mm - 0 W/m² -
1788607711 23.33° C 90% 1015.7 hPa 0 mm - 0 W/m² -
1788607405 23.33° C 89% 1015.7 hPa 0 mm - 0 W/m² -
1788607101 23.33° C 90% 1015.8 hPa 0 mm - 0 W/m² -
1788606795 23.33° C 90% 1015.8 hPa 0 mm - 0 W/m² -
1788606495 23.33° C 89% 1015.7 hPa 0 mm - 0 W/m² -
1788606194 23.33° C 90% 1015.8 hPa 0 mm - 0 W/m² -
1788605890 23.89° C 89% 1015.8 hPa 0 mm - 0 W/m² -

* Rain latest hour (hover to see other rain measurements)
** Current wind speed in m/s (hover to see current wind gust speed)